Location: Eaton Estates
(41.3089°N, 82.0057°W)
Time: 07:29:22
(UTC+00:00)

Cosmos 1726 Rocket - Pass Details

Date: 17 June 2021
Orbit: 602 x 630 km, 82.5° (Epoch: 04 August)

Event Time Altitude Azimuth Distance (km) Brightness Sun altitude
Rises 04:20:08 0° 355° (N) 2,931 8.4 -23.4°
Reaches altitude 10° 04:22:24 10° 358° (N) 2,018 7.2 -23.5°
Maximum altitude 04:26:51 64° 81° (E) 696 3.7 -23.7°
Enters shadow 04:26:55 64° 86° (E) 697 3.6 -23.7°
